Grand Rapids, MI

6:45 AM EDT on August 26, 2016 (GMT -0400)
Gerald R. Ford International

Weather History for KGRR - April, 2013

Change the Weather History Date:

Sunday, April 28, 2013

  Actual Average Record
Temperature  
Mean Temperature 59 °F 53 °F  
Max Temperature 64 °F 64 °F 83 °F (1901)
Min Temperature 53 °F 42 °F 24 °F (1945)
Degree Days  
Heating Degree Days 6 13  
Month to date heating degree days 604 494  
Since 1 July heating degree days 6117 6181  
Cooling Degree Days 0 0  
Month to date cooling degree days 0 0  
Year to date cooling degree days 0 1  
Growing Degree Days 8 (Base 50)    
Moisture  
Dew Point 46 °F    
Average Humidity 67    
Maximum Humidity 86    
Minimum Humidity 47    
Precipitation  
Precipitation T in 0.12 in 1.18 in (1975)
Month to date precipitation 10.76 3.11  
Year to date precipitation 18.76 9.36  
Snow  
Snow 0.00 in 0.00 in 0.90 in (1961)
Month to date snowfall 0.7 1.8  
Since 1 July snowfall 66.0 74.9  
Snow Depth 0.00 in    
Sea Level Pressure  
Sea Level Pressure 29.92 in    
Wind  
Wind Speed 7 mph (ESE)    
Max Wind Speed 17 mph    
Max Gust Speed 21 mph    
Visibility 10 miles    
Events      
T = Trace of Precipitation, MM = Missing Value Source: NWS Daily Summary

Daily Weather History Graph

Daily Weather History Graph

Search for Another Location

Airport or City:

Trip Planner

Search our weather history database for the weather conditions in past years. The results will help you decide how hot, cold, wet, or windy it might be!

Date:

Astronomy

Apr. 28, 2013 Rise Set
Actual Time 6:40 AM EDT 8:39 PM EDT
Civil Twilight 6:09 AM EDT 9:10 PM EDT
Nautical Twilight 5:31 AM EDT 9:48 PM EDT
Astronomical Twilight 4:51 AM EDT 10:29 PM EDT
Moon No Moon Rise 8:53 AM EDT (4/28)
Length of Visible Light 15h 01m
Length of Day
13h 59m
Waning Gibbous, 89% of the Moon is Illuminated
Apr 28
Waning Gibbous
May 2
Last Quarter
May 9
New
May 18
First Quarter
May 25
Full

Hourly Weather History & Observations

Time (EDT) Temp. Dew Point Humidity Pressure Visibility Wind Dir Wind Speed Gust Speed Precip Events Conditions
12:53 AM 57.0 °F 37.0 °F 47% 30.06 in 10.0 mi ESE 8.1 mph - N/A   Overcast
1:53 AM 57.0 °F 37.0 °F 47% 30.04 in 10.0 mi ESE 10.4 mph - N/A   Overcast
2:53 AM 55.9 °F 36.0 °F 47% 30.03 in 10.0 mi ESE 10.4 mph - N/A   Overcast
3:53 AM 55.0 °F 35.1 °F 47% 29.99 in 10.0 mi ESE 9.2 mph - N/A   Overcast
4:53 AM 54.0 °F 36.0 °F 51% 29.99 in 10.0 mi East 6.9 mph - N/A   Overcast
5:53 AM 53.1 °F 37.0 °F 55% 29.98 in 10.0 mi East 6.9 mph - N/A   Overcast
6:53 AM 53.1 °F 37.0 °F 55% 29.97 in 10.0 mi ESE 6.9 mph - N/A   Overcast
7:53 AM 53.1 °F 39.0 °F 59% 29.97 in 10.0 mi East 5.8 mph - N/A   Overcast
8:53 AM 55.4 °F 39.2 °F 54% 29.96 in 10.0 mi ESE 8.1 mph - N/A   Overcast
9:53 AM 57.0 °F 43.0 °F 59% 29.95 in 10.0 mi ESE 6.9 mph - 0.00 in   Overcast
10:53 AM 60.1 °F 45.0 °F 57% 29.94 in 10.0 mi ESE 4.6 mph - N/A   Overcast
11:53 AM 62.1 °F 48.0 °F 60% 29.92 in 10.0 mi SE 11.5 mph - N/A   Overcast
12:53 PM 62.1 °F 50.0 °F 65% 29.91 in 10.0 mi East 15.0 mph 18.4 mph N/A   Overcast
1:53 PM 61.0 °F 50.0 °F 67% 29.89 in 10.0 mi East 13.8 mph - 0.00 in   Overcast
2:53 PM 62.1 °F 51.1 °F 67% 29.88 in 10.0 mi ESE 11.5 mph - N/A   Overcast
3:53 PM 62.1 °F 51.1 °F 67% 29.87 in 10.0 mi SE 8.1 mph - N/A   Overcast
4:53 PM 60.8 °F 51.8 °F 72% 29.86 in 10.0 mi SSE 9.2 mph - N/A   Overcast
5:24 PM 60.8 °F 51.8 °F 72% 29.85 in 10.0 mi East 9.2 mph - N/A   Mostly Cloudy
5:53 PM 60.1 °F 51.1 °F 72% 29.85 in 10.0 mi East 10.4 mph - N/A   Mostly Cloudy
6:07 PM 59.0 °F 51.8 °F 77% 29.85 in 10.0 mi East 9.2 mph - N/A   Mostly Cloudy
6:46 PM 60.8 °F 51.8 °F 72% 29.85 in 10.0 mi East 6.9 mph - N/A   Mostly Cloudy
6:53 PM 60.1 °F 51.1 °F 72% 29.85 in 10.0 mi East 8.1 mph - N/A   Mostly Cloudy
7:53 PM 59.0 °F 51.8 °F 77% 29.84 in 10.0 mi East 9.2 mph - N/A   Scattered Clouds
8:53 PM 55.0 °F 50.0 °F 83% 29.86 in 10.0 mi Calm Calm - N/A   Scattered Clouds
9:53 PM 55.0 °F 50.0 °F 83% 29.87 in 10.0 mi Calm Calm - N/A   Mostly Cloudy
10:15 PM 55.4 °F 51.8 °F 88% 29.87 in 10.0 mi Calm Calm - N/A   Overcast
10:30 PM 55.4 °F 51.8 °F 88% 29.87 in 10.0 mi East 4.6 mph - N/A   Overcast
10:53 PM 55.0 °F 51.1 °F 86% 29.87 in 10.0 mi Calm Calm - N/A   Overcast
11:53 PM 55.0 °F 51.1 °F 86% 29.87 in 10.0 mi Calm Calm - N/A   Mostly Cloudy